GW2924 Weather Reports


Display with metric or nautical units.
time (UTC)temp
F
wind
direction
speed
MPH
gust
MPH
rain 1hr
in
rain 24hr
in
rain mn
in
humidity
%
barometer
mb
20260902065053 64 40 0.0 7.0 1.08 1.08 1.08 96 1016.1
20260902064620 64 46 2.0 5.0 1.07 1.07 1.07 95 1016.5
20260902064053 64 321 0.0 3.0 1.03 1.03 1.03 95 1018.5
20260902063556 65 287 1.0 3.0 1.01 1.01 1.01 94 1018.9
20260902063100 65 309 0.0 2.0 0.97 0.97 0.97 94 1018.2
20260902062554 66 0 1.0 15.0 0.89 0.89 0.89 94 1017.4
20260902062056 66 0 1.0 15.0 0.73 0.73 0.73 93 1016.6
20260902061606 68 297 8.0 15.0 0.45 0.45 0.45 91 1017.5
20260902061100 69 305 5.0 8.0 0.28 0.28 0.28 93 1016.7
20260902060721 69 303 1.0 6.0 0.18 0.18 0.18 93 1015.1
20260902060553 69 303 1.0 6.0 0.18 0.18 0.18 93 1015.1
20260902060126 70 19 1.0 6.0 0.11 0.11 0.11 92 1013.6
20260902055558 70 346 4.0 6.0 0.05 0.05 0.05 92 1013.3
20260902055052 70 65 3.0 5.0 0.00 0.00 0.00 92 1013.0
20260902054602 70 66 3.0 5.0 0.00 0.00 0.00 93 1012.9
20260902054053 69 70 3.0 4.0 0.00 0.00 0.00 93 1012.8
20260902053556 69 49 1.0 3.0 0.00 0.00 0.00 94 1013.1
20260902053101 69 146 0.0 3.0 0.00 0.00 0.00 94 1013.2
20260902052553 69 85 1.0 4.0 0.00 0.00 0.00 95 1012.9
20260902052056 69 77 2.0 4.0 0.00 0.00 0.00 95 1012.8
20260902051602 68 23 3.0 4.0 0.00 0.00 0.00 94 1012.9
20260902051054 68 34 0.0 0.0 0.00 0.00 0.00 95 1013.2
20260902050553 68 0 0.0 0.0 0.00 0.00 0.00 94 1013.6
20260902050117 68 0 0.0 1.0 0.00 0.00 0.00 94 1013.6
20260902045552 68 0 0.0 1.0 0.00 0.00 0.00 95 1013.9
20260902045056 68 212 0.0 1.0 0.00 0.00 0.00 95 1013.9
20260902044610 68 176 0.0 1.0 0.00 0.00 0.00 96 1013.9
20260902044058 68 0 0.0 1.0 0.00 0.00 0.00 96 1013.8
20260902043557 67 0 0.0 1.0 0.00 0.00 0.00 95 1013.4
20260902043105 67 0 0.0 1.0 0.00 0.00 0.00 95 1013.3
20260902042553 67 0 0.0 0.0 0.00 0.00 0.00 95 1013.3
20260902042056 67 0 0.0 1.0 0.00 0.00 0.00 95 1013.5
20260902041604 67 0 0.0 1.0 0.00 0.00 0.00 95 1013.5
20260902041052 67 246 1.0 1.0 0.00 0.00 0.00 95 1013.7
20260902040555 67 249 0.0 0.0 0.00 0.00 0.00 95 1013.6
20260902040113 67 0 0.0 0.0 0.00 0.00 0.00 95 1013.5
20260902035558 67 0 0.0 0.0 0.00 0.00 0.00 95 1013.7
20260902035056 67 0 0.0 0.0 0.00 0.00 0.00 95 1013.8
20260902034607 67 0 0.0 0.0 0.00 0.00 0.00 96 1013.7
20260902034056 66 0 0.0 0.0 0.00 0.00 0.00 94 1013.8
20260902033557 66 0 0.0 0.0 0.00 0.00 0.00 94 1014.0
20260902033108 67 0 0.0 0.0 0.00 0.00 0.00 94 1014.0
20260902032556 66 0 0.0 0.0 0.00 0.00 0.00 94 1013.9
20260902032056 66 0 0.0 0.0 0.00 0.00 0.00 94 1014.1
20260902031608 66 0 0.0 0.0 0.00 0.00 0.00 94 1014.2
20260902031056 67 0 0.0 0.0 0.00 0.00 0.00 94 1014.1
20260902030555 67 0 0.0 0.0 0.00 0.00 0.00 93 1014.2
20260902025555 67 0 0.0 0.0 0.00 0.00 0.00 94 1014.1
20260902025053 67 0 0.0 0.0 0.00 0.00 0.00 94 1014.2
20260902024611 67 0 0.0 0.0 0.00 0.00 0.00 94 1014.1
20260902024057 67 0 0.0 0.0 0.00 0.00 0.00 93 1014.1
20260902023553 67 0 0.0 0.0 0.00 0.00 0.00 93 1014.1
20260902023105 68 0 0.0 0.0 0.00 0.00 0.00 93 1014.0
20260902022557 68 0 0.0 0.0 0.00 0.00 0.00 93 1014.0
20260902022056 68 0 0.0 0.0 0.00 0.00 0.00 93 1014.1
20260902021604 68 0 0.0 0.0 0.00 0.00 0.00 93 1014.1
20260902021053 68 0 0.0 0.0 0.00 0.00 0.00 92 1014.2
20260902020555 69 0 0.0 0.0 0.00 0.00 0.00 92 1014.1
20260902020107 69 0 0.0 0.0 0.00 0.00 0.00 92 1014.0
20260902015552 69 0 0.0 0.0 0.00 0.00 0.00 92 1014.1
20260902015055 70 0 0.0 0.0 0.00 0.00 0.00 92 1014.1
20260902014603 70 0 0.0 0.0 0.00 0.00 0.00 92 1014.0
20260902014055 70 0 0.0 0.0 0.00 0.00 0.00 91 1013.9
20260902013556 70 0 0.0 1.0 0.00 0.00 0.00 91 1013.9
20260902013059 71 0 0.0 1.0 0.00 0.00 0.00 90 1013.8
20260902012555 71 0 0.0 0.0 0.00 0.00 0.00 89 1013.8
20260902012052 72 0 0.0 0.0 0.00 0.00 0.00 89 1013.8
20260902011603 72 0 0.0 0.0 0.00 0.00 0.00 88 1013.8
20260902011056 73 0 0.0 0.0 0.00 0.00 0.00 88 1013.8
20260902010554 73 0 0.0 0.0 0.00 0.00 0.00 88 1013.8
20260902010105 74 0 0.0 0.0 0.00 0.00 0.00 88 1013.7
20260902005556 74 0 0.0 0.0 0.00 0.00 0.00 87 1013.8
20260902005056 75 0 0.0 0.0 0.00 0.00 0.00 87 1013.8
20260902004603 75 0 0.0 0.0 0.00 0.00 0.00 86 1013.9
20260902004059 75 0 0.0 0.0 0.00 0.00 0.00 86 1014.0
20260902003557 76 0 0.0 0.0 0.00 0.00 0.00 85 1014.0
20260902003100 76 0 0.0 0.0 0.00 0.00 0.00 85 1013.9
20260902002559 77 0 0.0 0.0 0.00 0.00 0.00 83 1013.8
20260902002056 77 0 0.0 0.0 0.00 0.00 0.00 82 1013.9
20260902001603 78 0 0.0 0.0 0.00 0.00 0.00 81 1014.0
20260902001056 78 0 0.0 0.0 0.00 0.00 0.00 79 1014.1
20260902000559 79 0 0.0 0.0 0.00 0.00 0.00 79 1014.1
20260902000104 79 0 0.0 0.0 0.00 0.00 0.00 78 1014.0
20260901235556 79 0 0.0 0.0 0.00 0.00 0.00 78 1014.1
20260901235056 80 0 0.0 0.0 0.00 0.00 0.00 78 1014.0
20260901234559 80 0 0.0 0.0 0.00 0.00 0.00 78 1013.9
20260901234056 80 0 0.0 0.0 0.00 0.00 0.00 76 1013.9
20260901233556 80 0 0.0 0.0 0.00 0.00 0.00 76 1014.0
20260901233100 80 0 0.0 0.0 0.00 0.00 0.00 75 1013.9
20260901232556 80 0 0.0 0.0 0.00 0.00 0.00 76 1014.0
20260901232056 80 0 0.0 0.0 0.00 0.00 0.00 75 1014.0
20260901231605 81 0 0.0 0.0 0.00 0.00 0.00 75 1014.0
20260901231055 81 0 0.0 0.0 0.00 0.00 0.00 74 1014.0
20260901230552 81 0 0.0 0.0 0.00 0.00 0.00 74 1014.0
20260901230101 81 0 0.0 0.0 0.00 0.00 0.00 74 1013.9
20260901225554 81 0 0.0 0.0 0.00 0.00 0.00 75 1013.7
20260901225052 82 0 0.0 0.0 0.00 0.00 0.00 73 1013.7
20260901224557 82 0 0.0 0.0 0.00 0.00 0.00 72 1013.8
20260901224056 82 0 0.0 0.0 0.00 0.00 0.00 71 1013.7
20260901223554 82 0 0.0 0.0 0.00 0.00 0.00 70 1013.6
20260901223105 82 0 0.0 0.0 0.00 0.00 0.00 70 1013.7
20260901222553 83 0 0.0 0.0 0.00 0.00 0.00 69 1013.8
20260901222054 83 0 0.0 0.0 0.00 0.00 0.00 67 1013.9
20260901221607 83 0 0.0 0.0 0.00 0.00 0.00 68 1013.9
20260901221055 83 0 0.0 1.0 0.00 0.00 0.00 67 1014.1
20260901220553 83 0 0.0 2.0 0.00 0.00 0.00 68 1014.1
20260901220105 83 0 0.0 2.0 0.00 0.00 0.00 67 1014.1
20260901215552 83 0 0.0 3.0 0.00 0.00 0.00 65 1014.1
20260901215054 83 262 1.0 3.0 0.00 0.00 0.00 66 1014.1
20260901214610 84 266 1.0 5.0 0.00 0.00 0.00 67 1014.2
20260901214053 84 244 0.0 5.0 0.00 0.00 0.00 68 1014.1
20260901213553 84 177 2.0 5.0 0.00 0.00 0.00 68 1014.0
20260901213120 84 171 1.0 3.0 0.00 0.00 0.00 67 1014.0
20260901212552 84 0 0.0 1.0 0.00 0.00 0.00 67 1014.1
20260901212053 83 0 0.0 1.0 0.00 0.00 0.00 66 1014.0
20260901211604 83 0 0.0 1.0 0.00 0.00 0.00 66 1013.8
20260901211052 83 0 0.0 1.0 0.00 0.00 0.00 66 1013.9
20260901210555 83 0 0.0 1.0 0.00 0.00 0.00 67 1013.8
20260901205555 83 248 0.0 1.0 0.00 0.00 0.00 66 1014.3
20260901205059 83 269 1.0 2.0 0.00 0.00 0.00 67 1014.2
20260901204603 83 248 0.0 3.0 0.00 0.00 0.00 64 1013.9
20260901204055 83 248 0.0 4.0 0.00 0.00 0.00 65 1013.9
20260901203557 84 244 2.0 4.0 0.00 0.00 0.00 63 1014.2
20260901203118 85 247 1.0 3.0 0.00 0.00 0.00 62 1014.2
20260901202556 85 264 1.0 3.0 0.00 0.00 0.00 60 1014.1
20260901202052 85 198 0.0 2.0 0.00 0.00 0.00 60 1013.9
20260901201605 84 156 0.0 2.0 0.00 0.00 0.00 64 1014.2
20260901201052 84 0 1.0 2.0 0.00 0.00 0.00 65 1014.5
20260901200552 84 0 0.0 0.0 0.00 0.00 0.00 64 1014.5
20260901200105 84 0 0.0 1.0 0.00 0.00 0.00 64 1014.3
20260901195555 84 0 0.0 1.0 0.00 0.00 0.00 63 1014.4
20260901195056 84 0 0.0 2.0 0.00 0.00 0.00 62 1014.6
20260901194601 84 251 0.0 2.0 0.00 0.00 0.00 61 1014.8
20260901194052 85 238 1.0 4.0 0.00 0.00 0.00 60 1014.7
20260901193552 85 233 1.0 4.0 0.00 0.00 0.00 60 1014.7
20260901193120 85 263 2.0 4.0 0.00 0.00 0.00 58 1014.5
20260901192553 85 258 0.0 2.0 0.00 0.00 0.00 62 1014.6
20260901192053 84 250 0.0 2.0 0.00 0.00 0.00 59 1014.6
20260901191604 84 0 0.0 2.0 0.00 0.00 0.00 60 1014.5
20260901191053 84 269 0.0 2.0 0.00 0.00 0.00 58 1014.5
20260901190554 85 0 1.0 2.0 0.00 0.00 0.00 59 1014.5
20260901190111 85 268 0.0 1.0 0.00 0.00 0.00 58 1014.5
20260901185554 86 0 0.0 2.0 0.00 0.00 0.00 56 1014.6
20260901185054 87 0 0.0 2.0 0.00 0.00 0.00 57 1014.7
20260901184615 87 0 0.0 1.0 0.00 0.00 0.00 53 1014.8
20260901184054 88 201 0.0 1.0 0.00 0.00 0.00 53 1014.7
20260901183553 87 0 0.0 1.0 0.00 0.00 0.00 55 1014.6
20260901183106 87 0 0.0 1.0 0.00 0.00 0.00 54 1014.7
20260901182553 87 0 0.0 1.0 0.00 0.00 0.00 51 1014.9
20260901182053 86 0 0.0 1.0 0.00 0.00 0.00 50 1015.0
20260901181609 87 250 0.0 2.0 0.00 0.00 0.00 51 1015.0
20260901181054 87 255 0.0 4.0 0.00 0.00 0.00 49 1015.1
20260901180554 87 255 1.0 4.0 0.00 0.00 0.00 48 1015.3
20260901180105 88 257 1.0 4.0 0.00 0.00 0.00 47 1015.4
20260901175553 88 199 1.0 4.0 0.00 0.00 0.00 47 1015.4
20260901175053 88 274 1.0 4.0 0.00 0.00 0.00 46 1015.4
20260901174607 88 212 0.0 3.0 0.00 0.00 0.00 49 1015.5
20260901174054 87 191 0.0 3.0 0.00 0.00 0.00 49 1015.4
20260901173553 86 191 1.0 3.0 0.00 0.00 0.00 49 1015.4
20260901173057 85 33 1.0 2.0 0.00 0.00 0.00 50 1015.3
20260901172554 86 236 1.0 2.0 0.00 0.00 0.00 49 1015.3
20260901172054 86 243 0.0 2.0 0.00 0.00 0.00 48 1015.4
20260901171614 85 242 0.0 3.0 0.00 0.00 0.00 49 1015.5
20260901171053 85 240 0.0 3.0 0.00 0.00 0.00 48 1015.5
20260901170554 85 300 1.0 3.0 0.00 0.00 0.00 50 1015.6
20260901170109 85 225 1.0 3.0 0.00 0.00 0.00 51 1015.6
20260901165553 84 0 0.0 2.0 0.00 0.00 0.00 55 1015.7
20260901165053 83 0 0.0 2.0 0.00 0.00 0.00 58 1015.6
20260901164606 83 30 0.0 3.0 0.00 0.00 0.00 59 1015.6
20260901164055 82 25 1.0 5.0 0.00 0.00 0.00 58 1015.6
20260901163554 83 71 1.0 5.0 0.00 0.00 0.00 56 1015.7
20260901163100 83 15 1.0 5.0 0.00 0.00 0.00 58 1015.9
20260901162556 82 0 0.0 3.0 0.00 0.00 0.00 60 1015.9
20260901162053 82 0 1.0 3.0 0.00 0.00 0.00 59 1015.9
20260901161609 81 0 0.0 4.0 0.00 0.00 0.00 62 1015.9
20260901161054 81 245 1.0 4.0 0.00 0.00 0.00 61 1015.8
20260901160555 81 0 1.0 5.0 0.00 0.00 0.00 62 1015.8
20260901155556 79 30 2.0 6.0 0.00 0.00 0.00 66 1015.8
20260901155056 79 21 3.0 5.0 0.00 0.00 0.00 64 1015.9
20260901154605 79 344 1.0 5.0 0.00 0.00 0.00 68 1015.9
20260901154057 79 28 2.0 5.0 0.00 0.00 0.00 68 1015.9
20260901153554 79 253 1.0 5.0 0.00 0.00 0.00 70 1015.8
20260901153102 79 72 1.0 4.0 0.00 0.00 0.00 72 1015.8
20260901152554 79 226 1.0 4.0 0.00 0.00 0.00 70 1015.6
20260901152053 79 32 1.0 2.0 0.00 0.00 0.00 70 1015.8
20260901151602 79 281 0.0 2.0 0.00 0.00 0.00 72 1015.7
20260901151054 78 0 0.0 2.0 0.00 0.00 0.00 70 1015.6
20260901150553 79 271 0.0 2.0 0.00 0.00 0.00 72 1015.8
20260901150108 79 0 0.0 3.0 0.00 0.00 0.00 74 1015.8
20260901145553 78 293 0.0 3.0 0.00 0.00 0.00 75 1015.8
20260901145057 78 0 0.0 3.0 0.00 0.00 0.00 76 1015.9
20260901144601 77 7 0.0 2.0 0.00 0.00 0.00 77 1015.9
20260901144054 77 0 0.0 2.0 0.00 0.00 0.00 77 1015.9
20260901143557 76 0 0.0 2.0 0.00 0.00 0.00 78 1015.8
20260901143116 76 342 0.0 2.0 0.00 0.00 0.00 79 1016.0
20260901142554 76 0 0.0 2.0 0.00 0.00 0.00 80 1015.9
20260901142053 75 0 0.0 1.0 0.00 0.00 0.00 82 1015.8
20260901141616 75 0 0.0 2.0 0.00 0.00 0.00 82 1015.8
20260901141054 74 0 0.0 2.0 0.00 0.00 0.00 82 1015.9
20260901140556 74 0 0.0 3.0 0.00 0.00 0.00 83 1016.0
20260901140104 74 0 0.0 3.0 0.00 0.00 0.00 84 1015.9
20260901135600 73 0 0.0 1.0 0.00 0.00 0.00 86 1015.8
20260901135056 72 0 0.0 1.0 0.00 0.00 0.00 86 1015.9
20260901134625 71 232 0.0 1.0 0.00 0.00 0.00 86 1015.9
20260901134053 70 0 0.0 1.0 0.00 0.00 0.00 87 1015.9
20260901133557 70 0 0.0 1.0 0.00 0.00 0.00 87 1015.9
20260901133105 69 0 0.0 1.0 0.00 0.00 0.00 92 1015.7
20260901132554 68 251 0.0 1.0 0.00 0.00 0.00 93 1015.7
20260901132054 67 0 0.0 2.0 0.00 0.00 0.00 94 1015.7
20260901131609 66 272 0.0 2.0 0.00 0.00 0.00 94 1015.7
20260901131057 65 0 0.0 2.0 0.00 0.00 0.00 96 1015.7
20260901130553 65 0 0.0 1.0 0.00 0.00 0.00 96 1015.7
20260901125556 62 0 0.0 0.0 0.00 0.00 0.00 96 1015.7
20260901125053 62 0 0.0 1.0 0.00 0.00 0.00 95 1015.7
20260901124601 62 0 0.0 1.0 0.00 0.00 0.00 95 1015.6
20260901124053 62 261 0.0 1.0 0.00 0.00 0.00 96 1015.6
20260901123554 62 261 0.0 1.0 0.00 0.00 0.00 95 1015.5
20260901123110 62 262 0.0 1.0 0.00 0.00 0.00 96 1015.5
20260901122554 61 0 0.0 1.0 0.00 0.00 0.00 96 1015.4
20260901122057 61 261 0.0 1.0 0.00 0.00 0.00 96 1015.4
20260901121609 61 0 0.0 1.0 0.00 0.00 0.00 96 1015.4
20260901121053 61 0 0.0 1.0 0.00 0.00 0.00 96 1015.4
20260901120553 61 269 0.0 1.0 0.00 0.00 0.00 96 1015.3
20260901120104 61 0 0.0 1.0 0.00 0.00 0.00 96 1015.1
20260901115553 61 0 0.0 1.0 0.00 0.00 0.00 96 1015.1
20260901115052 60 266 0.0 1.0 0.00 0.00 0.00 96 1015.1
20260901114604 60 267 0.0 1.0 0.00 0.00 0.00 97 1015.0
20260901114053 60 0 0.0 1.0 0.00 0.00 0.00 97 1015.0
20260901113553 60 174 0.0 1.0 0.00 0.00 0.00 97 1015.0
20260901113057 59 238 0.0 1.0 0.00 0.00 0.00 97 1015.1
20260901112553 59 257 0.0 1.0 0.00 0.00 0.00 97 1014.9
20260901112054 59 257 0.0 1.0 0.00 0.00 0.00 97 1014.8
20260901111558 58 0 0.0 0.0 0.00 0.00 0.00 97 1014.8
20260901111053 58 0 0.0 0.0 0.00 0.00 0.00 96 1014.6
20260901110553 58 0 0.0 0.0 0.00 0.00 0.00 96 1014.6
20260901110104 58 0 0.0 0.0 0.00 0.00 0.00 95 1014.7
20260901105553 58 0 0.0 0.0 0.00 0.00 0.00 95 1014.6
20260901105053 58 0 0.0 0.0 0.00 0.00 0.00 95 1014.6
20260901104601 59 0 0.0 1.0 0.00 0.00 0.00 96 1014.7
20260901104053 59 0 0.0 1.0 0.00 0.00 0.00 96 1014.7
20260901103553 59 0 0.0 1.0 0.00 0.00 0.00 96 1014.7
20260901103106 59 257 0.0 1.0 0.00 0.00 0.00 96 1014.7
20260901102553 59 0 0.0 1.0 0.00 0.00 0.00 95 1014.8
20260901102054 59 0 0.0 1.0 0.00 0.00 0.00 96 1014.8
20260901101555 59 0 0.0 1.0 0.00 0.00 0.00 96 1014.9
20260901101054 59 261 0.0 1.0 0.00 0.00 0.00 95 1015.0
20260901100554 59 261 0.0 1.0 0.00 0.00 0.00 95 1014.8
20260901100106 59 261 0.0 1.0 0.00 0.00 0.00 96 1014.8
20260901095553 59 255 0.0 1.0 0.00 0.00 0.00 96 1014.7
20260901095053 59 263 0.0 1.0 0.00 0.00 0.00 96 1014.6
20260901094602 59 244 0.0 1.0 0.00 0.00 0.00 95 1014.5
20260901094055 59 0 0.0 1.0 0.00 0.00 0.00 96 1014.5
20260901093553 58 257 0.0 1.0 0.00 0.00 0.00 94 1014.5
20260901093059 59 0 0.0 1.0 0.00 0.00 0.00 94 1014.4
20260901092557 60 0 0.0 1.0 0.00 0.00 0.00 95 1014.3
20260901092053 60 0 0.0 1.0 0.00 0.00 0.00 97 1014.4
20260901091605 59 0 0.0 1.0 0.00 0.00 0.00 95 1014.3
20260901091056 59 257 0.0 1.0 0.00 0.00 0.00 94 1014.3
20260901090553 60 0 0.0 0.0 0.00 0.00 0.00 94 1014.3
20260901090104 61 0 0.0 1.0 0.00 0.00 0.00 95 1014.4
20260901085554 61 0 0.0 1.0 0.00 0.00 0.00 96 1014.3
20260901085053 61 0 0.0 1.0 0.00 0.00 0.00 96 1014.4
20260901084559 61 0 0.0 1.0 0.00 0.00 0.00 95 1014.4
20260901084054 61 0 0.0 1.0 0.00 0.00 0.00 96 1014.3
20260901083554 60 233 0.0 1.0 0.00 0.00 0.00 95 1014.5
20260901083104 60 233 0.0 1.0 0.00 0.00 0.00 94 1014.3
20260901082555 60 233 0.0 1.0 0.00 0.00 0.00 94 1014.3
20260901082053 61 0 0.0 1.0 0.00 0.00 0.00 93 1014.3
20260901081600 61 0 0.0 1.0 0.00 0.00 0.00 94 1014.3
20260901081055 62 0 0.0 1.0 0.00 0.00 0.00 94 1014.4
20260901080554 62 0 0.0 1.0 0.00 0.00 0.00 94 1014.3
20260901080109 62 0 0.0 1.0 0.00 0.00 0.00 95 1014.4
20260901075555 62 0 0.0 1.0 0.00 0.00 0.00 94 1014.3
20260901075054 62 0 0.0 1.0 0.00 0.00 0.00 94 1014.4
20260901074615 63 233 0.0 1.0 0.00 0.00 0.00 94 1014.5
20260901074054 62 0 0.0 1.0 0.00 0.00 0.00 93 1014.6
20260901073554 62 0 0.0 0.0 0.00 0.00 0.00 92 1014.6
20260901073104 63 0 0.0 0.0 0.00 0.00 0.00 92 1014.7
20260901072555 63 0 0.0 1.0 0.00 0.00 0.00 92 1014.8
20260901072054 64 0 0.0 1.0 0.00 0.00 0.00 93 1014.8
20260901071606 64 225 0.0 1.0 0.00 0.00 0.00 93 1015.0
20260901071053 64 0 0.0 0.0 0.00 0.00 0.00 93 1015.1
20260901070554 64 0 0.0 0.0 0.00 0.00 0.00 91 1014.7
20260901070105 64 0 0.0 0.0 0.00 0.00 0.00 91 1014.7
20260901065552 65 0 0.0 1.0 0.00 0.00 0.00 92 1014.8